[[{"header":{"parameterUnit":"m.s-1","parameterCategory":2,"la1":30.2991,"la2":30.254,"lo1":-89.0895,"lo2":-89.0444,"dy":0.0017,"dx":0.0017,"nx":28,"ny":28,"refTime":"2025-08-22T03:00:00:Z","depth":"0","parameterNumber":2,"parameterNumberName":"U-component_of_CURRENTS"},"data":[0,0,0,0,0,0,0,0,0,0,0,0,0,0,0,0,0,0,0,0,0,0,0,0,0,0,0,0,0,0,0,0,0,0,0,0,0,0,0,0,0,0,0,0,0,0,0,0,0,0,0,0,0,0,0,0,0,0,-0.2027,-0.2027,0,-0.205,-0.205,-0.205,-0.2022,-0.2021,-0.202,-0.202,-0.2005,-0.2006,-0.2006,0,0,0,0,0,0,0,0,0,0,0,0,0,-0.1956,-0.1957,-0.2027,-0.2027,-0.2028,-0.205,-0.205,-0.205,-0.2022,-0.2021,-0.202,-0.2019,-0.2005,-0.2006,-0.2006,0,0,0,0,0,0,0,0,0,0,0,0,0,-0.1981,-0.1957,-0.2026,-0.2018,-0.2018,-0.205,-0.205,-0.205,-0.2022,-0.2021,-0.202,-0.2019,-0.2005,-0.2006,-0.2006,-0.2035,0,0,-0.2008,-0.2008,0,0,0,0,0,0,0,0,-0.198,-0.1984,-0.2019,-0.2019,-0.2018,-0.2034,-0.202,-0.2044,-0.2023,-0.2018,-0.202,-0.2018,-0.2014,-0.2014,-0.2018,-0.2034,-0.2033,-0.2008,-0.2008,-0.2009,-0.2009,0,0,0,0,0,0,0,-0.1978,-0.1983,-0.2033,-0.202,-0.2019,-0.2013,-0.2015,-0.2024,-0.202,-0.2018,-0.2017,-0.2024,-0.2013,-0.2018,-0.2017,-0.2033,-0.2008,-0.2009,-0.2009,-0.2009,-0.2051,-0.2052,0,0,0,0,0,0,-0.1982,-0.1981,-0.2033,-0.2034,-0.1998,-0.2015,-0.2017,-0.2028,-0.2021,-0.202,-0.2025,-0.2022,-0.2017,-0.2017,-0.2017,-0.2035,-0.2009,-0.2009,-0.201,-0.2051,-0.2052,-0.2052,0,0,0,0,0,0,-0.198,-0.1987,-0.2032,-0.201,-0.2015,-0.2018,-0.203,-0.2029,-0.2028,-0.2027,-0.2024,-0.2024,-0.2016,-0.2016,-0.2021,-0.2034,-0.2009,-0.201,-0.205,-0.2051,-0.2052,-0.208,0,0,0,0,0,0,-0.1978,-0.1986,-0.1991,-0.201,-0.2017,-0.2051,-0.2032,-0.2031,-0.2036,-0.2033,-0.2025,-0.2023,-0.2015,-0.2021,-0.2022,-0.2034,-0.201,-0.2049,-0.205,-0.2052,-0.2078,-0.2082,-0.2085,0,0,0,0,0,-0.1976,-0.1992,-0.1992,-0.1998,-0.2026,-0.2052,-0.2055,-0.205,-0.2037,-0.2043,-0.2034,-0.2023,-0.2031,-0.2022,-0.2023,-0.2036,-0.2048,-0.205,-0.2051,-0.2077,-0.2081,-0.2085,0,0,0,0,0,0,-0.1962,-0.1991,-0.1991,-0.2014,-0.2031,-0.2048,-0.2054,-0.2053,-0.2053,-0.2045,-0.2034,-0.2032,-0.2042,-0.2038,-0.2029,-0.2053,-0.2037,-0.204,-0.2056,-0.206,-0.2064,-0.2061,-0.2011,0,0,0,0,0,-0.1964,-0.198,-0.2007,-0.2022,-0.2033,-0.2043,-0.2051,-0.2053,-0.2058,-0.2056,-0.2052,-0.2048,-0.2054,-0.2054,-0.2058,-0.2074,-0.2058,-0.2084,-0.2087,-0.209,-0.2089,-0.2079,-0.2082,-0.2058,-0.2058,-0.2058,0,0,-0.1961,-0.1979,-0.1987,-0.202,-0.203,-0.2053,-0.2044,-0.2061,-0.2075,-0.2056,-0.2064,-0.2062,-0.2061,-0.2075,-0.208,-0.2071,-0.2088,-0.2092,-0.2095,-0.2092,-0.2081,-0.2083,-0.2085,-0.2059,-0.2059,-0.2059,0,0,-0.1968,-0.1982,-0.1999,-0.202,-0.2045,-0.2057,-0.2063,-0.2083,-0.2083,-0.21,-0.2088,-0.2091,-0.21,-0.2102,-0.2104,-0.2132,-0.2107,-0.2135,-0.215,-0.2141,-0.2142,-0.2144,-0.212,-0.2119,-0.2136,-0.2136,-0.2136,0,-0.1962,-0.1988,-0.2007,-0.2033,-0.2048,-0.206,-0.2082,-0.2095,-0.2111,-0.2115,-0.2103,-0.2115,-0.2114,-0.213,-0.2138,-0.214,-0.2123,-0.2133,-0.2145,-0.2145,-0.2146,-0.2122,-0.212,-0.2138,-0.2137,-0.2137,-0.2137,0,-0.1983,-0.2005,-0.2018,-0.2052,-0.2074,-0.2094,-0.2122,-0.2135,-0.2136,-0.2144,-0.2156,-0.2154,-0.2157,-0.2163,-0.2159,-0.217,-0.2152,-0.2149,-0.2131,-0.215,-0.2123,-0.2121,-0.214,-0.2139,-0.2139,-0.2138,0,0,-0.196,-0.2021,-0.2021,-0.204,-0.2084,-0.2103,-0.2134,-0.2162,-0.2174,-0.2184,-0.2193,-0.2206,-0.2196,-0.2198,-0.2194,-0.2189,-0.218,-0.2172,-0.2171,-0.2143,-0.2145,-0.2071,-0.2061,-0.2177,-0.2177,-0.2176,-0.2122,0,-0.1963,-0.2008,-0.204,-0.2075,-0.2099,-0.213,-0.2157,-0.2185,-0.2198,-0.2212,-0.2213,-0.222,-0.2213,-0.221,-0.2207,-0.2192,-0.2176,-0.2194,-0.2135,-0.2133,-0.2061,-0.2057,-0.1958,-0.1896,-0.212,-0.212,-0.2119,0,-0.1965,-0.1995,-0.2033,-0.2086,-0.2098,-0.2121,-0.2158,-0.2187,-0.2219,-0.2228,-0.2237,-0.2237,-0.224,-0.2225,-0.22,-0.221,-0.2178,-0.2159,-0.2157,-0.2075,-0.2055,-0.1915,-0.1883,-0.1865,-0.2115,-0.2116,-0.2116,0,-0.1924,-0.1985,-0.201,-0.203,-0.2094,-0.211,-0.214,-0.2182,-0.22,-0.2232,-0.2237,-0.2247,-0.2237,-0.2217,-0.218,-0.219,-0.2137,-0.2145,-0.2044,-0.2038,-0.1935,-0.192,-0.1873,-0.2113,-0.2113,-0.2113,-0.2113,0,-0.1909,-0.1925,-0.1991,-0.2003,-0.2024,-0.2085,-0.2105,-0.214,-0.2182,-0.2194,-0.2232,-0.223,-0.2232,-0.2206,-0.2179,-0.2095,-0.2132,-0.2037,-0.2018,-0.1942,-0.1928,-0.1893,-0.1917,-0.2111,-0.2112,-0.2112,-0.2112,0,-0.1851,-0.19,-0.1926,-0.1988,-0.2004,-0.2016,-0.2073,-0.2086,-0.2142,-0.2157,-0.2165,-0.2205,-0.2172,-0.2155,-0.2113,-0.2072,-0.1971,-0.1973,-0.1875,-0.1845,-0.1733,-0.1763,-0.1697,-0.1649,-0.1857,-0.1854,-0.1853,0,-0.1823,-0.1832,-0.189,-0.1894,-0.1916,-0.1947,-0.1963,-0.2042,-0.2062,-0.213,-0.2126,-0.2122,-0.2082,-0.2001,-0.1937,-0.1857,-0.1871,-0.1725,-0.1726,-0.1701,-0.1721,-0.1752,-0.172,-0.1601,-0.1598,-0.1595,-0.1592,0,-0.1752,-0.1772,-0.179,-0.1804,-0.1819,-0.184,-0.1877,-0.1891,-0.1978,-0.1995,-0.2003,-0.1979,-0.1919,-0.1795,-0.1707,-0.1656,-0.1678,-0.1658,-0.1659,-0.1534,-0.1537,-0.1489,-0.1666,-0.1565,-0.1567,-0.1569,-0.1571,-0.1572,-0.1677,-0.1669,-0.1689,-0.1689,-0.1707,-0.1707,-0.1684,-0.1738,-0.1746,-0.1751,-0.1823,-0.1759,-0.1691,-0.1547,-0.1494,-0.1384,-0.1463,-0.1344,-0.1387,-0.1423,-0.1363,-0.147,-0.1334,-0.1335,-0.1337,-0.1338,-0.1339,0,-0.1571,-0.157,-0.157,-0.1566,-0.1533,-0.1584,-0.1597,-0.1555,-0.1517,-0.1567,-0.1546,-0.1478,-0.1345,-0.1308,-0.1203,-0.1136,-0.1124,-0.1124,-0.1154,-0.1137,-0.1237,-0.121,-0.1007,-0.1007,-0.1007,-0.1007,-0.1007,-0.1007,-0.1514,-0.1472,-0.1472,-0.1382,-0.1374,-0.129,-0.1266,-0.1227,-0.1232,-0.1176,-0.1172,-0.1186,-0.1161,-0.1206,-0.1097,-0.1035,-0.1031,-0.0988,-0.1038,-0.1126,-0.1151,-0.1174,-0.1154,-0.0942,-0.0942,-0.0877,-0.0877,-0.0877]},{"header":{"parameterUnit":"m.s-1","parameterCategory":2,"la1":30.2991,"la2":30.254,"lo1":-89.0895,"lo2":-89.0444,"dy":0.0017,"dx":0.0017,"nx":28,"ny":28,"refTime":"2025-08-22T03:00:00:Z","depth":"0","parameterNumber":3,"parameterNumberName":"V-component_of_CURRENTS"},"data":[0,0,0,0,0,0,0,0,0,0,0,0,0,0,0,0,0,0,0,0,0,0,0,0,0,0,0,0,0,0,0,0,0,0,0,0,0,0,0,0,0,0,0,0,0,0,0,0,0,0,0,0,0,0,0,0,0,0,-0.0212,-0.0212,0,-0.0151,-0.015,-0.015,-0.01,-0.0099,-0.0099,-0.0099,0.0001,0.0004,0.0006,0,0,0,0,0,0,0,0,0,0,0,0,0,-0.0244,-0.0243,-0.0212,-0.0211,-0.0211,-0.0151,-0.015,-0.0149,-0.01,-0.0099,-0.0099,-0.0098,0.0001,0.0003,0.0006,0,0,0,0,0,0,0,0,0,0,0,0,0,-0.021,-0.0243,-0.0212,-0.018,-0.0176,-0.0151,-0.015,-0.0149,-0.01,-0.0099,-0.0099,-0.0098,-0.0,0.0003,0.0006,0.0015,0,0,0.0017,0.0018,0,0,0,0,0,0,0,0,-0.0212,-0.0209,-0.0185,-0.0182,-0.0178,-0.0133,-0.0125,-0.0093,-0.01,-0.0128,-0.0099,-0.0098,-0.0041,-0.0034,-0.0023,0.002,0.0024,0.0017,0.0019,0.0021,0.0022,0,0,0,0,0,0,0,-0.0215,-0.0211,-0.0187,-0.0185,-0.018,-0.0154,-0.0149,-0.0118,-0.0087,-0.0125,-0.0122,-0.0117,-0.0039,-0.0027,-0.0021,0.0025,0.0017,0.002,0.0022,0.0023,0.0087,0.0087,0,0,0,0,0,0,-0.0227,-0.0214,-0.0189,-0.0185,-0.0195,-0.0154,-0.0148,-0.0148,-0.0088,-0.0079,-0.0118,-0.0115,-0.0033,-0.0025,-0.0017,-0.0004,0.0021,0.0024,0.0026,0.0088,0.0087,0.0087,0,0,0,0,0,0,-0.0228,-0.0226,-0.0191,-0.0198,-0.0192,-0.0155,-0.0154,-0.0147,-0.0134,-0.0083,-0.0073,-0.0112,-0.0032,-0.0022,0.0008,-0.0,0.0025,0.0028,0.0088,0.0088,0.0087,0.0021,0,0,0,0,0,0,-0.0229,-0.0227,-0.0231,-0.02,-0.0192,-0.0183,-0.0154,-0.0146,-0.0132,-0.0128,-0.0075,-0.0065,-0.0031,0.0003,0.0011,0.0005,0.0031,0.0089,0.0088,0.0087,0.0024,0.0019,0.0014,0,0,0,0,0,-0.0231,-0.0243,-0.0232,-0.0229,-0.02,-0.0184,-0.0178,-0.0147,-0.0133,-0.0132,-0.0095,-0.0067,0.0005,0.0005,0.0015,0.001,0.0089,0.0088,0.0087,0.0026,0.002,0.0014,0,0,0,0,0,0,-0.026,-0.0238,-0.0225,-0.023,-0.0211,-0.0176,-0.0173,-0.0153,-0.0124,-0.0119,-0.0069,-0.0057,-0.0035,-0.0004,-0.0005,0.0026,0.0051,0.0052,0.0001,-0.0005,-0.001,-0.0019,0.0034,0,0,0,0,0,-0.0269,-0.0271,-0.0245,-0.0249,-0.0242,-0.0209,-0.0198,-0.0179,-0.0149,-0.0136,-0.0099,-0.0061,-0.0031,-0.0012,0.002,0.0038,0.0073,0.0041,0.0036,0.0031,0.003,0.0068,0.0066,0.0084,0.0084,0.0084,0,0,-0.0281,-0.027,-0.027,-0.0255,-0.0236,-0.0237,-0.0201,-0.0191,-0.0188,-0.013,-0.0114,-0.0077,-0.003,-0.0011,0.0002,0.0015,0.0045,0.003,0.0026,0.0028,0.0067,0.0065,0.0063,0.0084,0.0084,0.0084,0,0,-0.0312,-0.0297,-0.0312,-0.03,-0.0281,-0.0259,-0.026,-0.0229,-0.0211,-0.0191,-0.0151,-0.0119,-0.0073,-0.0041,-0.0018,-0.0031,0.0016,-0.0023,-0.0053,-0.0018,-0.0019,-0.0019,0.0025,0.0029,-0.0024,-0.0024,-0.0025,0,-0.0328,-0.0343,-0.0313,-0.0325,-0.0321,-0.0275,-0.029,-0.0266,-0.0228,-0.0215,-0.0195,-0.0126,-0.0087,-0.0059,-0.0063,-0.0043,-0.0012,-0.0036,-0.0025,-0.0024,-0.0024,0.0022,0.0027,-0.0028,-0.0027,-0.0027,-0.0027,0,-0.0371,-0.0381,-0.0389,-0.0388,-0.0378,-0.0383,-0.0349,-0.0334,-0.0304,-0.0276,-0.0242,-0.0185,-0.0143,-0.0127,-0.0097,-0.0077,-0.0052,-0.0038,-0.0012,-0.003,0.002,0.0027,-0.0032,-0.0031,-0.003,-0.0029,0,0,-0.0411,-0.042,-0.0422,-0.0436,-0.0413,-0.0412,-0.0403,-0.0382,-0.0375,-0.0328,-0.0312,-0.0256,-0.0219,-0.0191,-0.0146,-0.0112,-0.0079,-0.0078,-0.0075,-0.0038,0.0007,0.0054,0.0066,-0.0066,-0.0065,-0.0064,0.0041,0,-0.0455,-0.0499,-0.0483,-0.0515,-0.0533,-0.049,-0.0485,-0.0456,-0.0418,-0.0388,-0.0321,-0.0289,-0.0245,-0.0224,-0.0183,-0.0103,-0.0066,-0.0109,0.0023,0.0027,0.0067,0.0074,0.0112,0.0211,0.0048,0.0049,0.005,0,-0.0504,-0.0526,-0.0572,-0.0583,-0.0585,-0.059,-0.0569,-0.056,-0.0501,-0.0468,-0.0417,-0.036,-0.0295,-0.0259,-0.0133,-0.0163,-0.0088,-0.0024,-0.0018,0.0054,0.0086,0.0203,0.023,0.0345,0.006,0.006,0.0059,0,-0.0555,-0.0586,-0.0627,-0.0631,-0.0633,-0.0638,-0.063,-0.0586,-0.0574,-0.0516,-0.0492,-0.0408,-0.0354,-0.0259,-0.0118,-0.0129,0.0029,0.003,0.0145,0.0149,0.0223,0.0233,0.0374,0.011,0.011,0.0109,0.0109,0,-0.0611,-0.0641,-0.0655,-0.0678,-0.0715,-0.0692,-0.0708,-0.0682,-0.0638,-0.0621,-0.0538,-0.049,-0.0353,-0.024,-0.0128,0.0042,0.0024,0.0147,0.018,0.0202,0.0208,0.0345,0.0384,0.0113,0.0113,0.0112,0.0111,0,-0.0663,-0.0673,-0.0721,-0.0738,-0.0744,-0.0768,-0.0764,-0.0767,-0.0718,-0.0689,-0.0672,-0.0544,-0.0389,-0.0237,-0.0059,0.0039,0.027,0.0248,0.0271,0.0304,0.0501,0.0533,0.0706,0.0782,0.0381,0.0383,0.0385,0,-0.0695,-0.0727,-0.077,-0.0798,-0.0809,-0.0835,-0.0846,-0.0812,-0.0804,-0.0711,-0.0694,-0.0542,-0.0409,-0.012,0.0077,0.029,0.037,0.0436,0.0416,0.0528,0.0589,0.0606,0.0658,0.0493,0.0495,0.0497,0.0499,0,-0.0751,-0.0764,-0.0801,-0.0861,-0.0889,-0.092,-0.0927,-0.0933,-0.0877,-0.0816,-0.0699,-0.0582,-0.0296,-0.0023,0.0248,0.0373,0.0528,0.048,0.0593,0.0689,0.0721,0.0804,0.041,0.0515,0.0514,0.0512,0.0511,0.0511,-0.078,-0.082,-0.0865,-0.0917,-0.0953,-0.0984,-0.0996,-0.0971,-0.093,-0.0808,-0.0695,-0.0442,-0.0105,0.0295,0.043,0.0724,0.0682,0.0806,0.0838,0.0847,0.0917,0.0563,0.0702,0.0701,0.0701,0.07,0.07,0,-0.081,-0.0854,-0.0914,-0.0972,-0.1012,-0.1016,-0.1029,-0.0996,-0.0923,-0.0755,-0.0589,-0.0108,0.0231,0.0541,0.0917,0.1071,0.1097,0.1147,0.1182,0.1219,0.0915,0.0916,0.1111,0.1111,0.1111,0.111,0.111,0.111,-0.0826,-0.0889,-0.0923,-0.0997,-0.1033,-0.1049,-0.1046,-0.0965,-0.083,-0.051,-0.0186,0.0079,0.053,0.1028,0.136,0.139,0.1519,0.1509,0.1575,0.1361,0.1331,0.1302,0.1315,0.159,0.159,0.1877,0.188,0.1882]}],[{"header":{"parameterUnit":"m.s-1","parameterCategory":2,"la1":30.2991,"la2":30.254,"lo1":-89.0895,"lo2":-89.0444,"dy":0.0017,"dx":0.0017,"nx":28,"ny":28,"refTime":"2025-08-22T03:00:00:Z","depth":"2","parameterNumber":2,"parameterNumberName":"U-component_of_CURRENTS"},"data":[0,0,0,0,0,0,0,0,0,0,0,0,0,0,0,0,0,0,0,0,0,0,0,0,0,0,0,0,0,0,0,0,0,0,0,0,0,0,0,0,0,0,0,0,0,0,0,0,0,0,0,0,0,0,0,0,0,0,-0.1845,-0.1845,0,-0.1874,-0.1874,-0.1874,-0.1856,-0.1856,-0.1855,-0.1854,-0.1857,-0.1858,-0.1859,0,0,0,0,0,0,0,0,0,0,0,0,0,-0.1782,-0.1783,-0.1845,-0.1845,-0.1846,-0.1874,-0.1874,-0.1874,-0.1856,-0.1855,-0.1855,-0.1854,-0.1857,-0.1858,-0.1859,0,0,0,0,0,0,0,0,0,0,0,0,0,-0.1808,-0.1783,-0.1845,-0.1842,-0.1842,-0.1874,-0.1874,-0.1874,-0.1856,-0.1855,-0.1854,-0.1853,-0.1857,-0.1858,-0.1859,-0.1886,0,0,-0.1862,-0.1863,0,0,0,0,0,0,0,0,-0.1807,-0.181,-0.1842,-0.1842,-0.1842,-0.1862,-0.1853,-0.1878,-0.1857,-0.1849,-0.1854,-0.1853,-0.1858,-0.1859,-0.1865,-0.1886,-0.1886,-0.1862,-0.1863,-0.1863,-0.1864,0,0,0,0,0,0,0,-0.1805,-0.1809,-0.1855,-0.1842,-0.1843,-0.1842,-0.1844,-0.1858,-0.1857,-0.185,-0.1849,-0.1855,-0.1858,-0.1864,-0.1865,-0.1887,-0.1862,-0.1863,-0.1864,-0.1864,-0.192,-0.192,0,0,0,0,0,0,-0.1806,-0.1808,-0.1854,-0.1856,-0.1824,-0.1844,-0.1846,-0.1855,-0.1858,-0.1858,-0.1856,-0.1854,-0.1862,-0.1863,-0.1865,-0.189,-0.1863,-0.1864,-0.1865,-0.1919,-0.192,-0.1921,0,0,0,0,0,0,-0.1805,-0.181,-0.1853,-0.1833,-0.1839,-0.1846,-0.1856,-0.1856,-0.186,-0.1863,-0.1862,-0.186,-0.1862,-0.1863,-0.1877,-0.189,-0.1865,-0.1866,-0.1918,-0.1919,-0.192,-0.1946,0,0,0,0,0,0,-0.1803,-0.1809,-0.1814,-0.1834,-0.184,-0.1873,-0.1857,-0.1858,-0.1867,-0.1865,-0.1866,-0.1865,-0.1861,-0.1875,-0.1878,-0.1891,-0.1867,-0.1917,-0.1918,-0.192,-0.1944,-0.1948,-0.1951,0,0,0,0,0,-0.18,-0.1814,-0.1815,-0.182,-0.1848,-0.1874,-0.1878,-0.1878,-0.1868,-0.1876,-0.1874,-0.1865,-0.1887,-0.1877,-0.188,-0.1894,-0.1916,-0.1918,-0.192,-0.1942,-0.1947,-0.1951,0,0,0,0,0,0,-0.1787,-0.1814,-0.1815,-0.1835,-0.1854,-0.1872,-0.1879,-0.1882,-0.1888,-0.1883,-0.1878,-0.1879,-0.1896,-0.1894,-0.1884,-0.1915,-0.1899,-0.1902,-0.1916,-0.192,-0.1924,-0.192,-0.1868,0,0,0,0,0,-0.1789,-0.1803,-0.183,-0.1843,-0.1854,-0.1867,-0.1877,-0.1882,-0.1892,-0.1893,-0.1895,-0.1898,-0.1908,-0.1912,-0.192,-0.1941,-0.1925,-0.1951,-0.1955,-0.1958,-0.1957,-0.1949,-0.1952,-0.1927,-0.1927,-0.1927,0,0,-0.1787,-0.1803,-0.1811,-0.1841,-0.1853,-0.1878,-0.187,-0.189,-0.1907,-0.1894,-0.1911,-0.1913,-0.1917,-0.1936,-0.1943,-0.1935,-0.1956,-0.196,-0.1963,-0.196,-0.1952,-0.1954,-0.1956,-0.1928,-0.1928,-0.1928,0,0,-0.1794,-0.1806,-0.1823,-0.1844,-0.187,-0.1883,-0.1891,-0.1914,-0.1919,-0.1943,-0.1935,-0.1943,-0.1961,-0.1964,-0.1968,-0.1999,-0.1976,-0.2003,-0.2018,-0.2011,-0.2012,-0.2013,-0.1991,-0.199,-0.2004,-0.2004,-0.2004,0,-0.179,-0.1814,-0.1831,-0.1856,-0.1873,-0.1887,-0.1911,-0.1927,-0.195,-0.1956,-0.195,-0.1972,-0.1975,-0.1994,-0.2003,-0.2007,-0.1992,-0.2,-0.2014,-0.2015,-0.2016,-0.1993,-0.1991,-0.2005,-0.2005,-0.2005,-0.2005,0,-0.1811,-0.1832,-0.1845,-0.188,-0.1902,-0.1925,-0.1954,-0.1971,-0.1978,-0.1989,-0.2008,-0.2012,-0.202,-0.2027,-0.2025,-0.2038,-0.2021,-0.2019,-0.2,-0.202,-0.1994,-0.1992,-0.2007,-0.2007,-0.2006,-0.2006,0,0,-0.1789,-0.1848,-0.185,-0.1869,-0.1916,-0.1934,-0.197,-0.2,-0.2014,-0.2032,-0.2046,-0.2064,-0.2057,-0.2062,-0.2059,-0.2056,-0.2049,-0.2041,-0.204,-0.2013,-0.2019,-0.1951,-0.1941,-0.2047,-0.2047,-0.2047,-0.1996,0,-0.1795,-0.1841,-0.1871,-0.191,-0.1934,-0.1966,-0.1996,-0.2026,-0.2043,-0.2062,-0.2067,-0.2079,-0.2074,-0.2074,-0.2073,-0.206,-0.2046,-0.2062,-0.2009,-0.2007,-0.1939,-0.1938,-0.1793,-0.173,-0.1994,-0.1994,-0.1993,0,-0.1799,-0.1829,-0.187,-0.1923,-0.1936,-0.1962,-0.2003,-0.2033,-0.2067,-0.208,-0.2093,-0.2096,-0.2103,-0.209,-0.2069,-0.2079,-0.2049,-0.2033,-0.203,-0.1955,-0.1935,-0.1756,-0.1717,-0.199,-0.199,-0.199,-0.1991,0,-0.1763,-0.1824,-0.1853,-0.1872,-0.1937,-0.1956,-0.1987,-0.2031,-0.205,-0.2086,-0.2095,-0.2107,-0.2103,-0.2085,-0.2053,-0.2061,-0.2017,-0.2022,-0.1928,-0.1922,-0.1782,-0.1764,-0.1993,-0.1993,-0.1993,-0.1994,-0.1994,0,-0.1751,-0.177,-0.1837,-0.1851,-0.1877,-0.1934,-0.196,-0.1995,-0.204,-0.2053,-0.2092,-0.2094,-0.21,-0.2079,-0.2053,-0.1977,-0.2012,-0.1922,-0.1904,-0.1787,-0.177,-0.1986,-0.1986,-0.1992,-0.1992,-0.1992,-0.1993,0,-0.1699,-0.1748,-0.1778,-0.1843,-0.186,-0.1874,-0.1935,-0.1951,-0.2007,-0.2025,-0.2035,-0.2075,-0.2046,-0.2033,-0.1997,-0.1957,-0.1907,-0.1867,-0.1722,-0.1687,-0.1818,-0.182,-0.1761,-0.1758,-0.1756,-0.1753,-0.1752,0,-0.1675,-0.1686,-0.1748,-0.1757,-0.1782,-0.1817,-0.1837,-0.1914,-0.1936,-0.2,-0.1998,-0.1999,-0.1958,-0.1887,-0.1825,-0.1749,-0.1822,-0.1581,-0.1572,-0.1805,-0.1794,-0.18,-0.1805,-0.1394,-0.1389,-0.1386,-0.1383,0,-0.1612,-0.1635,-0.1655,-0.1678,-0.1699,-0.1725,-0.1765,-0.1779,-0.1861,-0.1878,-0.1882,-0.1857,-0.1798,-0.1653,-0.1573,-0.152,-0.1588,-0.1503,-0.1772,-0.1482,-0.1457,-0.1447,-0.1464,-0.135,-0.1353,-0.1356,-0.1357,-0.1359,-0.1547,-0.1543,-0.1568,-0.1575,-0.16,-0.1606,-0.1588,-0.1637,-0.1645,-0.1638,-0.1704,-0.1612,-0.1591,-0.1379,-0.1301,-0.1246,-0.1362,-0.1304,-0.1316,-0.1332,-0.1305,-0.1278,-0.1132,-0.1133,-0.1135,-0.1137,-0.1138,0,-0.1453,-0.1456,-0.1462,-0.1467,-0.1445,-0.1496,-0.1511,-0.147,-0.1429,-0.1441,-0.141,-0.1241,-0.1128,-0.1114,-0.0968,-0.0942,-0.0945,-0.091,-0.0913,-0.0945,-0.0974,-0.0931,-0.0657,-0.0656,-0.0655,-0.0653,0,0,-0.1404,-0.137,-0.1371,-0.13,-0.13,-0.123,-0.1208,-0.1166,-0.1142,-0.106,-0.1006,-0.106,-0.1068,-0.0863,-0.0816,-0.0709,-0.0822,-0.0671,-0.1055,-0.109,-0.1117,-0.1196,-0.1164,0,0,0,0,0]},{"header":{"parameterUnit":"m.s-1","parameterCategory":2,"la1":30.2991,"la2":30.254,"lo1":-89.0895,"lo2":-89.0444,"dy":0.0017,"dx":0.0017,"nx":28,"ny":28,"refTime":"2025-08-22T03:00:00:Z","depth":"2","parameterNumber":3,"parameterNumberName":"V-component_of_CURRENTS"},"data":[0,0,0,0,0,0,0,0,0,0,0,0,0,0,0,0,0,0,0,0,0,0,0,0,0,0,0,0,0,0,0,0,0,0,0,0,0,0,0,0,0,0,0,0,0,0,0,0,0,0,0,0,0,0,0,0,0,0,-0.0202,-0.0202,0,-0.0148,-0.0147,-0.0147,-0.0102,-0.0102,-0.0101,-0.0101,-0.0007,-0.0005,-0.0003,0,0,0,0,0,0,0,0,0,0,0,0,0,-0.0225,-0.0225,-0.0202,-0.0202,-0.0201,-0.0148,-0.0147,-0.0146,-0.0102,-0.0102,-0.0101,-0.0101,-0.0008,-0.0005,-0.0003,0,0,0,0,0,0,0,0,0,0,0,0,0,-0.0196,-0.0225,-0.0202,-0.0173,-0.017,-0.0148,-0.0147,-0.0146,-0.0102,-0.0101,-0.0101,-0.01,-0.0009,-0.0005,-0.0002,0.0006,0,0,0.0008,0.0009,0,0,0,0,0,0,0,0,-0.0198,-0.0195,-0.0178,-0.0175,-0.0172,-0.0132,-0.0121,-0.0094,-0.0102,-0.0127,-0.0101,-0.01,-0.0046,-0.004,-0.003,0.0011,0.0015,0.0008,0.001,0.0011,0.0012,0,0,0,0,0,0,0,-0.02,-0.0197,-0.018,-0.0178,-0.0174,-0.0148,-0.0144,-0.0115,-0.0089,-0.0125,-0.0122,-0.0117,-0.0044,-0.0033,-0.0027,0.0016,0.0008,0.0011,0.0013,0.0014,0.0075,0.0075,0,0,0,0,0,0,-0.0212,-0.0199,-0.0181,-0.0178,-0.0185,-0.0149,-0.0144,-0.0144,-0.009,-0.0082,-0.0118,-0.0115,-0.0039,-0.0031,-0.0024,-0.0007,0.0011,0.0014,0.0016,0.0075,0.0075,0.0075,0,0,0,0,0,0,-0.0213,-0.0211,-0.0184,-0.0188,-0.0183,-0.0149,-0.015,-0.0144,-0.0132,-0.0085,-0.0076,-0.0113,-0.0038,-0.0028,0.0,-0.0003,0.0016,0.0019,0.0076,0.0075,0.0075,0.0025,0,0,0,0,0,0,-0.0214,-0.0212,-0.0216,-0.0189,-0.0183,-0.0176,-0.0151,-0.0143,-0.0131,-0.0127,-0.0078,-0.0069,-0.0037,-0.0005,0.0003,0.0002,0.0021,0.0076,0.0075,0.0075,0.0027,0.0023,0.0019,0,0,0,0,0,-0.0215,-0.0227,-0.0217,-0.0215,-0.0191,-0.0177,-0.0171,-0.0144,-0.0131,-0.0131,-0.0096,-0.007,-0.0003,-0.0003,0.0007,0.0006,0.0076,0.0076,0.0075,0.0028,0.0023,0.0019,0,0,0,0,0,0,-0.0239,-0.0223,-0.0211,-0.0218,-0.02,-0.017,-0.0168,-0.0149,-0.0122,-0.0117,-0.0072,-0.0061,-0.0038,-0.0011,-0.0012,0.0022,0.004,0.0041,0.0001,-0.0003,-0.0007,-0.0016,0.0024,0,0,0,0,0,-0.0248,-0.0252,-0.0229,-0.0234,-0.0228,-0.0199,-0.0189,-0.0172,-0.0145,-0.0133,-0.0099,-0.0064,-0.0035,-0.0015,0.0013,0.0033,0.0066,0.0038,0.0034,0.0031,0.003,0.0072,0.0072,0.0072,0.0072,0.0072,0,0,-0.0259,-0.025,-0.0252,-0.0239,-0.0223,-0.0222,-0.0192,-0.0183,-0.0178,-0.0127,-0.0109,-0.0077,-0.0034,-0.0012,0.0,0.0012,0.0048,0.003,0.0027,0.0028,0.0072,0.0072,0.0072,0.0072,0.0072,0.0072,0,0,-0.0286,-0.0275,-0.0288,-0.0278,-0.0261,-0.0242,-0.0242,-0.0215,-0.0197,-0.0178,-0.0141,-0.011,-0.0068,-0.0035,-0.0013,-0.0021,0.0023,-0.0015,-0.0036,0.0005,0.0006,0.0007,0.0046,0.0051,-0.0013,-0.0013,-0.0013,0,-0.03,-0.0313,-0.0289,-0.0298,-0.0293,-0.0255,-0.0265,-0.0243,-0.0209,-0.0194,-0.018,-0.0113,-0.0077,-0.0043,-0.0047,-0.0029,0.0,-0.0022,0.0,0.0002,0.0004,0.0044,0.005,-0.0015,-0.0015,-0.0015,-0.0015,0,-0.0336,-0.0344,-0.0351,-0.0348,-0.0339,-0.0342,-0.031,-0.0296,-0.027,-0.0242,-0.0206,-0.0156,-0.0114,-0.01,-0.0074,-0.0046,-0.0028,-0.0013,0.0011,0.0001,0.0044,0.0051,-0.0019,-0.0018,-0.0017,-0.0017,0,0,-0.0371,-0.0377,-0.0379,-0.0388,-0.0366,-0.0364,-0.0352,-0.0328,-0.0317,-0.0276,-0.0254,-0.0202,-0.017,-0.0143,-0.0103,-0.0066,-0.003,-0.004,-0.0036,-0.0003,0.0061,0.0087,0.0097,-0.0011,-0.001,-0.001,0.0086,0,-0.0407,-0.0442,-0.0427,-0.045,-0.0464,-0.0424,-0.0416,-0.0386,-0.0348,-0.0317,-0.0254,-0.0221,-0.0187,-0.0167,-0.0125,-0.0054,-0.0013,-0.0057,0.0068,0.0072,0.0095,0.0106,0.0087,0.0171,0.0093,0.0094,0.0095,0,-0.0447,-0.0464,-0.05,-0.0504,-0.0505,-0.0507,-0.0481,-0.0468,-0.0408,-0.0377,-0.0325,-0.0274,-0.021,-0.0183,-0.0063,-0.0093,-0.0024,0.0033,0.0038,0.0085,0.0111,0.017,0.0187,0.0108,0.0107,0.0106,0.0105,0,-0.0491,-0.0513,-0.0545,-0.0547,-0.0544,-0.0545,-0.0535,-0.0489,-0.0475,-0.0413,-0.039,-0.0306,-0.026,-0.0166,-0.0046,-0.0055,0.009,0.0095,0.0186,0.0189,0.021,0.0213,0.0179,0.0178,0.0178,0.0178,0.0178,0,-0.0536,-0.056,-0.057,-0.0589,-0.0618,-0.0593,-0.0602,-0.0574,-0.0529,-0.0509,-0.0427,-0.0383,-0.0255,-0.0153,-0.0051,0.0095,0.0091,0.0188,0.0218,0.0191,0.0192,0.0164,0.0161,0.0182,0.0181,0.018,0.0179,0,-0.0581,-0.0588,-0.0628,-0.0639,-0.0644,-0.0664,-0.0656,-0.0654,-0.0604,-0.0573,-0.0556,-0.0437,-0.03,-0.016,0.0005,0.0091,0.0225,0.0277,0.0238,0.0261,0.0296,0.0289,0.0383,0.0385,0.0387,0.0388,0.0389,0,-0.0608,-0.0635,-0.0673,-0.0699,-0.0708,-0.0728,-0.0738,-0.07,-0.0689,-0.0598,-0.0582,-0.0446,-0.033,-0.0074,0.0096,0.0287,0.0281,0.037,0.035,0.0299,0.0318,0.0309,0.0301,0.036,0.036,0.0361,0.0361,0,-0.0657,-0.067,-0.0702,-0.076,-0.0786,-0.081,-0.0816,-0.0819,-0.0761,-0.0702,-0.0596,-0.0493,-0.0249,-0.0035,0.0201,0.0306,0.0336,0.0389,0.0361,0.0305,0.0283,0.03,0.0291,0.0367,0.0366,0.0366,0.0365,0.0365,-0.0685,-0.0723,-0.0766,-0.0816,-0.0849,-0.0877,-0.0887,-0.086,-0.0819,-0.0706,-0.0608,-0.0406,-0.0232,0.0129,0.0275,0.0413,0.041,0.0444,0.0439,0.0435,0.0409,0.039,0.049,0.049,0.049,0.0491,0.0491,0,-0.0718,-0.0759,-0.0816,-0.0871,-0.0911,-0.0914,-0.0922,-0.0893,-0.0825,-0.0684,-0.054,-0.0292,-0.0051,0.0138,0.036,0.0479,0.0457,0.0494,0.0439,0.0434,0.0429,0.04,0.048,0.0481,0.0481,0.0481,0,0,-0.0736,-0.0796,-0.0828,-0.0903,-0.0939,-0.096,-0.0957,-0.0882,-0.0773,-0.0609,-0.0436,-0.0236,-0.0014,0.014,0.0277,0.0389,0.0377,0.0397,0.0394,0.0306,0.0299,0.0391,0.0341,0,0,0,0,0]}],[{"header":{"parameterUnit":"m.s-1","parameterCategory":2,"la1":30.2991,"la2":30.254,"lo1":-89.0895,"lo2":-89.0444,"dy":0.0017,"dx":0.0017,"nx":28,"ny":28,"refTime":"2025-08-22T03:00:00:Z","depth":"4","parameterNumber":2,"parameterNumberName":"U-component_of_CURRENTS"},"data":[0,0,0,0,0,0,0,0,0,0,0,0,0,0,0,0,0,0,0,0,0,0,0,0,0,0,0,0,0,0,0,0,0,0,0,0,0,0,0,0,0,0,0,0,0,0,0,0,0,0,0,0,0,0,0,0,0,0,-0.13,-0.1301,0,-0.1358,-0.1359,-0.1359,-0.1388,-0.1389,-0.1389,-0.1389,-0.1452,-0.1454,-0.1456,0,0,0,0,0,0,0,0,0,0,0,0,0,-0.1227,-0.1228,-0.13,-0.1301,-0.1302,-0.1358,-0.1359,-0.136,-0.1388,-0.1389,-0.1389,-0.1389,-0.1452,-0.1454,-0.1456,0,0,0,0,0,0,0,0,0,0,0,0,0,-0.1268,-0.1228,-0.13,-0.1324,-0.1327,-0.1358,-0.1359,-0.136,-0.1388,-0.1389,-0.1389,-0.1389,-0.1451,-0.1454,-0.1456,-0.1468,0,0,-0.1463,-0.1464,0,0,0,0,0,0,0,0,-0.1266,-0.1271,-0.132,-0.1322,-0.1326,-0.1367,-0.1356,-0.1396,-0.1388,-0.1364,-0.1389,-0.1389,-0.1425,-0.143,-0.1439,-0.147,-0.1473,-0.1463,-0.1465,-0.1466,-0.1467,0,0,0,0,0,0,0,-0.1263,-0.1268,-0.1322,-0.132,-0.1324,-0.1336,-0.1342,-0.1364,-0.1392,-0.1366,-0.1369,-0.1377,-0.1427,-0.1436,-0.144,-0.1474,-0.1463,-0.1466,-0.1467,-0.1468,-0.1566,-0.1567,0,0,0,0,0,0,-0.1257,-0.1266,-0.132,-0.1324,-0.1297,-0.1337,-0.1343,-0.1353,-0.1392,-0.1398,-0.1376,-0.1378,-0.1432,-0.1437,-0.1443,-0.1506,-0.1466,-0.1468,-0.147,-0.1565,-0.1567,-0.1568,0,0,0,0,0,0,-0.1255,-0.1261,-0.1318,-0.1297,-0.1305,-0.1338,-0.1348,-0.1354,-0.1385,-0.14,-0.1406,-0.1404,-0.1432,-0.1439,-0.1482,-0.1507,-0.1469,-0.1471,-0.1564,-0.1566,-0.1567,-0.1603,0,0,0,0,0,0,-0.1253,-0.126,-0.1276,-0.1296,-0.1306,-0.1351,-0.1349,-0.1355,-0.1388,-0.1391,-0.1425,-0.143,-0.1433,-0.1478,-0.1484,-0.151,-0.1473,-0.1562,-0.1565,-0.1567,-0.16,-0.1605,-0.161,0,0,0,0,0,-0.125,-0.1268,-0.1276,-0.1284,-0.1323,-0.1352,-0.1358,-0.1381,-0.139,-0.1408,-0.1432,-0.143,-0.1496,-0.1482,-0.1488,-0.1515,-0.1561,-0.1564,-0.1567,-0.1598,-0.1604,-0.161,0,0,0,0,0,0,-0.1244,-0.1273,-0.1283,-0.1309,-0.1335,-0.1357,-0.138,-0.1395,-0.1428,-0.1438,-0.1448,-0.1455,-0.15,-0.1505,-0.1488,-0.1549,-0.1528,-0.1532,-0.1549,-0.1555,-0.156,-0.1553,-0.1475,0,0,0,0,0,-0.125,-0.1271,-0.1298,-0.1321,-0.1336,-0.1363,-0.1382,-0.1399,-0.1426,-0.1442,-0.1465,-0.149,-0.1513,-0.1532,-0.1553,-0.1591,-0.1575,-0.1611,-0.1616,-0.162,-0.1619,-0.1617,-0.1621,-0.1577,-0.1577,-0.1577,0,0,-0.1255,-0.1273,-0.1287,-0.1322,-0.1344,-0.1374,-0.1375,-0.1412,-0.1441,-0.1443,-0.1497,-0.1512,-0.1528,-0.1567,-0.1588,-0.1577,-0.1625,-0.1624,-0.1627,-0.1623,-0.162,-0.1624,-0.1628,-0.1578,-0.1578,-0.1578,0,0,-0.1269,-0.1293,-0.1315,-0.1341,-0.138,-0.1397,-0.1412,-0.145,-0.1474,-0.1523,-0.1528,-0.1558,-0.1604,-0.1613,-0.1623,-0.167,-0.1651,-0.1682,-0.1704,-0.1703,-0.1706,-0.1709,-0.169,-0.169,-0.1685,-0.1685,-0.1686,0,-0.1277,-0.1305,-0.1327,-0.1356,-0.1381,-0.141,-0.1442,-0.1471,-0.152,-0.1539,-0.1547,-0.1606,-0.1622,-0.1655,-0.1672,-0.1681,-0.167,-0.1679,-0.1708,-0.171,-0.1712,-0.1692,-0.1692,-0.1687,-0.1687,-0.1687,-0.1687,0,-0.13,-0.1335,-0.1352,-0.1396,-0.1427,-0.1461,-0.1499,-0.1536,-0.1568,-0.1591,-0.164,-0.166,-0.1689,-0.1703,-0.1705,-0.1733,-0.1717,-0.1712,-0.1689,-0.1719,-0.1696,-0.1695,-0.169,-0.169,-0.1689,-0.1689,0,0,-0.1284,-0.1355,-0.1364,-0.1393,-0.1453,-0.1477,-0.1531,-0.1578,-0.1609,-0.1655,-0.169,-0.1732,-0.1737,-0.1748,-0.1754,-0.1758,-0.1765,-0.1746,-0.1745,-0.172,-0.175,-0.1634,-0.1622,-0.1766,-0.1767,-0.1767,-0.1726,0,-0.1297,-0.1354,-0.1389,-0.1448,-0.148,-0.1526,-0.157,-0.1617,-0.1656,-0.1696,-0.1719,-0.1754,-0.1755,-0.1771,-0.1777,-0.1772,-0.1767,-0.1775,-0.1731,-0.1729,-0.1616,-0.1618,-0.1768,-0.1725,-0.1725,-0.1725,-0.1725,0,-0.1302,-0.1341,-0.1402,-0.1473,-0.1492,-0.1535,-0.1601,-0.1644,-0.1701,-0.173,-0.1763,-0.1779,-0.1803,-0.1795,-0.1792,-0.1799,-0.1776,-0.1765,-0.1763,-0.1639,-0.1612,-0.1691,-0.1724,-0.1724,-0.1724,-0.1724,-0.1724,0,-0.1264,-0.1346,-0.1395,-0.1422,-0.1507,-0.1546,-0.1592,-0.1655,-0.1688,-0.1748,-0.1769,-0.18,-0.1813,-0.1805,-0.1784,-0.1792,-0.1761,-0.1767,-0.1636,-0.1628,-0.173,-0.1727,-0.1749,-0.1749,-0.1749,-0.175,-0.175,0,-0.1249,-0.129,-0.1387,-0.1412,-0.1467,-0.1535,-0.159,-0.1638,-0.1701,-0.1724,-0.1779,-0.1786,-0.1817,-0.1804,-0.1785,-0.1697,-0.1758,-0.1629,-0.1606,-0.1746,-0.1746,-0.1729,-0.1727,-0.1748,-0.1748,-0.1749,-0.1749,0,-0.1194,-0.1262,-0.132,-0.1419,-0.1452,-0.1489,-0.1581,-0.161,-0.1682,-0.1711,-0.1729,-0.1777,-0.1752,-0.1755,-0.1732,-0.1675,-0.1621,-0.1573,-0.1708,-0.1696,-0.1489,-0.149,-0.1422,-0.1418,-0.1414,-0.1411,-0.1408,0,-0.1167,-0.1194,-0.1305,-0.1336,-0.1385,-0.1454,-0.1493,-0.1586,-0.161,-0.1683,-0.1679,-0.1691,-0.1702,-0.1564,-0.1593,-0.1528,-0.151,-0.1474,-0.1491,-0.1469,-0.1455,-0.1462,-0.1468,-0.1402,-0.1401,-0.14,-0.1399,0,-0.1106,-0.1158,-0.1202,-0.1267,-0.1321,-0.1369,-0.1433,-0.1439,-0.1528,-0.1611,-0.157,-0.1542,-0.1505,-0.1475,-0.1425,-0.1389,-0.1498,-0.1434,-0.1442,-0.1458,-0.1444,-0.1435,-0.1445,-0.1386,-0.1388,-0.1389,-0.139,0,-0.1055,-0.1068,-0.1132,-0.1174,-0.1237,-0.1253,-0.1306,-0.1325,-0.1358,-0.1444,-0.1425,-0.1437,-0.1484,-0.14,-0.1363,-0.1308,-0.1292,-0.1254,-0.1271,-0.1286,-0.126,-0.1224,-0.1066,0,0,0,0,0,-0.0995,-0.0996,-0.103,-0.1073,-0.1131,-0.1163,-0.1246,-0.1301,-0.139,-0.1319,-0.1366,-0.1323,-0.126,-0.1275,-0.1186,-0.1305,-0.1302,-0.1198,-0.127,-0.1312,-0.1328,-0.131,0,0,0,0,0,0,-0.0955,-0.0983,-0.0993,-0.0971,-0.0977,-0.1027,-0.1072,-0.114,-0.111,-0.1201,-0.1168,-0.1237,-0.1192,-0.1275,-0.1153,-0.1156,-0.1173,-0.1218,-0.1214,-0.1304,-0.1318,-0.133,-0.1317,0,0,0,0,0]},{"header":{"parameterUnit":"m.s-1","parameterCategory":2,"la1":30.2991,"la2":30.254,"lo1":-89.0895,"lo2":-89.0444,"dy":0.0017,"dx":0.0017,"nx":28,"ny":28,"refTime":"2025-08-22T03:00:00:Z","depth":"4","parameterNumber":3,"parameterNumberName":"V-component_of_CURRENTS"},"data":[0,0,0,0,0,0,0,0,0,0,0,0,0,0,0,0,0,0,0,0,0,0,0,0,0,0,0,0,0,0,0,0,0,0,0,0,0,0,0,0,0,0,0,0,0,0,0,0,0,0,0,0,0,0,0,0,0,0,-0.0167,-0.0167,0,-0.0133,-0.0133,-0.0132,-0.0103,-0.0103,-0.0103,-0.0102,-0.003,-0.0028,-0.0027,0,0,0,0,0,0,0,0,0,0,0,0,0,-0.0173,-0.0173,-0.0167,-0.0167,-0.0167,-0.0133,-0.0133,-0.0132,-0.0103,-0.0103,-0.0103,-0.0102,-0.0031,-0.0029,-0.0027,0,0,0,0,0,0,0,0,0,0,0,0,0,-0.0157,-0.0173,-0.0168,-0.0149,-0.0147,-0.0134,-0.0133,-0.0132,-0.0103,-0.0103,-0.0102,-0.0102,-0.0031,-0.0029,-0.0026,-0.0018,0,0,-0.0018,-0.0017,0,0,0,0,0,0,0,0,-0.0158,-0.0157,-0.0152,-0.015,-0.0148,-0.0123,-0.0108,-0.0092,-0.0103,-0.0119,-0.0102,-0.0102,-0.0058,-0.0054,-0.0047,-0.0014,-0.0011,-0.0018,-0.0017,-0.0016,-0.0015,0,0,0,0,0,0,0,-0.0159,-0.0158,-0.0153,-0.0152,-0.0149,-0.0131,-0.0128,-0.0105,-0.009,-0.0117,-0.0115,-0.0113,-0.0057,-0.005,-0.0045,-0.001,-0.0018,-0.0016,-0.0014,-0.0013,0.0036,0.0036,0,0,0,0,0,0,-0.0168,-0.0159,-0.0154,-0.0152,-0.0153,-0.0131,-0.0128,-0.0131,-0.0091,-0.0085,-0.0114,-0.0112,-0.0054,-0.0048,-0.0042,-0.0027,-0.0016,-0.0013,-0.0012,0.0036,0.0036,0.0036,0,0,0,0,0,0,-0.0168,-0.0168,-0.0155,-0.0155,-0.0152,-0.0132,-0.0134,-0.013,-0.0124,-0.0088,-0.0081,-0.0112,-0.0054,-0.0046,-0.0024,-0.0024,-0.0012,-0.001,0.0037,0.0036,0.0036,0.0003,0,0,0,0,0,0,-0.0168,-0.0168,-0.0174,-0.0156,-0.0153,-0.0152,-0.0135,-0.013,-0.0123,-0.0121,-0.0084,-0.0077,-0.0053,-0.0028,-0.0022,-0.002,-0.0008,0.0037,0.0036,0.0036,0.0004,0.0001,-0.0001,0,0,0,0,0,-0.0169,-0.018,-0.0174,-0.0174,-0.0161,-0.0153,-0.0149,-0.0132,-0.0124,-0.0124,-0.0099,-0.0078,-0.0026,-0.0026,-0.0019,-0.0016,0.0037,0.0036,0.0036,0.0005,0.0002,-0.0001,0,0,0,0,0,0,-0.0185,-0.0177,-0.0171,-0.0179,-0.0169,-0.0148,-0.0149,-0.0136,-0.0117,-0.0114,-0.008,-0.0071,-0.0053,-0.0032,-0.0033,-0.0004,0.0008,0.0009,-0.0018,-0.0021,-0.0023,-0.003,-0.0006,0,0,0,0,0,-0.0192,-0.0198,-0.0185,-0.0191,-0.0188,-0.0169,-0.0164,-0.0153,-0.0134,-0.0125,-0.01,-0.0073,-0.0049,-0.0033,-0.0012,0.0006,0.0033,0.0011,0.0009,0.0006,0.0006,0.0048,0.0049,0.0034,0.0034,0.0034,0,0,-0.0201,-0.0197,-0.02,-0.0195,-0.0186,-0.0185,-0.0165,-0.0162,-0.0157,-0.012,-0.0107,-0.0083,-0.0048,-0.003,-0.002,-0.0011,0.0024,0.0006,0.0004,0.0004,0.0048,0.0049,0.0051,0.0034,0.0034,0.0034,0,0,-0.022,-0.0217,-0.0228,-0.0222,-0.0213,-0.02,-0.0202,-0.0184,-0.0172,-0.0158,-0.013,-0.0105,-0.0073,-0.0044,-0.0026,-0.0029,0.0005,-0.0026,-0.0038,0.0002,0.0004,0.0006,0.0039,0.0044,-0.0023,-0.0023,-0.0023,0,-0.0231,-0.0242,-0.023,-0.0236,-0.0234,-0.021,-0.0217,-0.0202,-0.0178,-0.0166,-0.0159,-0.0106,-0.0078,-0.0044,-0.0047,-0.0034,-0.001,-0.0029,-0.0,0.0002,0.0005,0.0038,0.0044,-0.0025,-0.0025,-0.0025,-0.0025,0,-0.0255,-0.0264,-0.027,-0.027,-0.0265,-0.0269,-0.0247,-0.0237,-0.022,-0.02,-0.017,-0.0131,-0.0097,-0.0085,-0.0067,-0.0036,-0.0025,-0.0012,0.0008,0.0004,0.0039,0.0046,-0.0027,-0.0027,-0.0026,-0.0026,0,0,-0.0278,-0.0287,-0.0289,-0.0297,-0.0284,-0.0284,-0.0274,-0.0256,-0.0246,-0.0216,-0.0197,-0.0155,-0.0131,-0.0109,-0.0079,-0.0043,-0.0006,-0.0025,-0.0022,0.0007,0.0079,0.0063,0.007,0.0013,0.0014,0.0014,0.0094,0,-0.0301,-0.0328,-0.032,-0.0338,-0.0348,-0.0323,-0.0316,-0.0294,-0.0267,-0.0241,-0.019,-0.0165,-0.014,-0.0125,-0.0085,-0.0028,0.0011,-0.0029,0.0078,0.0081,0.0068,0.0077,0.0018,0.01,0.0101,0.0103,0.0103,0,-0.0326,-0.0341,-0.0369,-0.0375,-0.0377,-0.0381,-0.0364,-0.0354,-0.0306,-0.0283,-0.0239,-0.02,-0.0144,-0.0125,-0.0021,-0.0049,0.001,0.0057,0.0061,0.0064,0.0078,0.0106,0.0117,0.0116,0.0115,0.0114,0.0113,0,-0.0352,-0.0373,-0.0399,-0.0402,-0.0404,-0.0409,-0.0405,-0.037,-0.036,-0.0309,-0.0292,-0.0218,-0.0183,-0.0099,-0.0006,-0.0011,0.0111,0.0119,0.0164,0.0164,0.0169,0.0167,0.0198,0.0198,0.0197,0.0197,0.0197,0,-0.0377,-0.0398,-0.0419,-0.0434,-0.0461,-0.0446,-0.0457,-0.0437,-0.0403,-0.0388,-0.032,-0.0285,-0.0175,-0.0092,-0.0007,0.0097,0.0114,0.0164,0.0186,0.0152,0.0147,0.0174,0.0171,0.02,0.02,0.0199,0.0198,0,-0.04,-0.0413,-0.0449,-0.0469,-0.0479,-0.0499,-0.0505,-0.0504,-0.0468,-0.0443,-0.0429,-0.0332,-0.0224,-0.0109,0.0032,0.0089,0.0195,0.023,0.0182,0.0199,0.0221,0.0215,0.0286,0.0286,0.0286,0.0286,0.0286,0,-0.0413,-0.0436,-0.0484,-0.0513,-0.0528,-0.0554,-0.0569,-0.0544,-0.0535,-0.0467,-0.0452,-0.0348,-0.0273,-0.0076,0.0034,0.0197,0.0217,0.0264,0.0244,0.0218,0.0232,0.0225,0.0218,0.0286,0.0286,0.0286,0.0287,0,-0.0437,-0.046,-0.049,-0.0555,-0.0588,-0.0615,-0.0629,-0.0627,-0.0584,-0.0554,-0.0453,-0.0345,-0.0222,-0.0075,0.0049,0.0165,0.0227,0.0266,0.0266,0.0248,0.022,0.0232,0.0225,0.0287,0.0287,0.0287,0.0287,0,-0.0453,-0.0486,-0.0534,-0.0585,-0.0633,-0.0658,-0.0663,-0.0634,-0.0612,-0.0525,-0.0493,-0.0346,-0.0257,-0.009,0.0026,0.0133,0.0156,0.018,0.0186,0.0186,0.0127,0.0074,0.0118,0,0,0,0,0,-0.0464,-0.0504,-0.0559,-0.0613,-0.0661,-0.0683,-0.0692,-0.0682,-0.0642,-0.0573,-0.0526,-0.0401,-0.0213,-0.0126,-0.0019,0.0007,0.0153,0.0131,0.0179,0.029,0.0289,0.0234,0,0,0,0,0,0,-0.0474,-0.0529,-0.056,-0.0622,-0.0662,-0.0703,-0.0709,-0.0684,-0.063,-0.0574,-0.0465,-0.0392,-0.0205,-0.0271,-0.0021,0.0011,0.0051,0.0227,0.0228,0.029,0.0289,0.0289,0.0232,0,0,0,0,0]}]]